Location: Lac Lasalle
(46.0398°N, 74.1576°W)
Time: 00:02:43
(UTC-05:00)

SEEDS - Pass Details

Date: 23 December 2019
Orbit: 586 x 603 km, 97.5° (Epoch: 20 January)

Event Time Altitude Azimuth Distance (km) Brightness Sun altitude
Rises 16:39:51 0° 160° (SSE) 2,810 ? -4.5°
Reaches altitude 10° 16:42:00 10° 158° (SSE) 1,916 ? -4.9°
Maximum altitude 16:46:08 70° 75° (ENE) 635 ? -5.5°
Drops below altitude 10° 16:50:20 10° 352° (N) 1,942 ? -6.1°
Sets 16:52:32 0° 350° (N) 2,852 ? -6.5°
